Regional Weather Roundup
Issued by NWS

Home | Current Version | Previous Version | Text Only | Print | Product List | Glossary On
Versions: 1 2 3 4 5 6 7 8 9 10 11 12 13 14 15 16 17 18 19 20 21 22 23 24 25 26 27 28 29 30 31 32 33 34 35 36 37 38 39 40 41 42 43 44 45 46 47 48 49 50
359
ASUS44 KLIX 281007
RWRLA
LOUISIANA WEATHER ROUNDUP
NATIONAL WEATHER SERVICE NEW ORLEANS LA
500 AM CDT SAT MAR 28 2015

NOTE: "FAIR" INDICATES FEW OR NO CLOUDS BELOW 12,000 FEET WITH NO
      SIGNIFICANT WEATHER AND/OR OBSTRUCTIONS TO VISIBILITY.
      SKY/WX - SKY CONDITION AND SIGNIFICANT WEATHER.
      TMP - AIR TEMPERATURE.    DP   - DEWPOINT TEMPERATURE.
      RH  - RELATIVE HUMIDITY.  PRES - PRESSURE.
      HX  - HEAT INDEX.         WCI  - WIND CHILL INDEX.

*  THESE STATIONS ARE NOT NWS OR FAA STATIONS AND ARE NOT UNDER
   NWS QUALITY CONTROL.

LAZ040-048-061>063-065-066-069-281100-
SOUTHEAST LOUISIANA

CITY           SKY/WX    TMP DP  RH WIND       PRES   REMARKS
N.O. AUDUBON     N/A     52 N/A N/A MISG        N/A
N.O. INTL ARPT CLEAR     53  38  56 NE8       30.17S
N.O. LAKEFRONT CLEAR     55  40  56 NE15      30.18S
SLIDELL        CLEAR     42  39  89 CALM      30.17F
BATON ROUGE    CLEAR     44  41  89 NE3       30.18R
BOOTHVILLE     PTCLDY    57  45  64 NE7       30.17R
BELLE CHASSE   CLEAR     47  39  74 NE3       30.17R
BOGALUSA*        N/A     42  38  87 CALM      30.20R
GALLIANO*      SUNNY     55  44  66 MISG      30.18R
NEW ROADS*     FAIR      46  39  76 E3        30.18S
GONZALES*      FAIR      48  39  71 CALM      30.17S
HAMMOND*       CLEAR     45  37  76 CALM      30.19F
HOUMA*         CLEAR     47  43  87 NE5       30.17R
PORT FOURCHON* SUNNY     59  45  58 NE14      30.19R

$$

LAZ041-044-053-054-281100-
SOUTHWEST LOUISIANA

CITY           SKY/WX    TMP DP  RH WIND       PRES   REMARKS
LAKE CHARLES   CLEAR     47  43  86 CALM      30.15S
LAFAYETTE      CLEAR     49  44  83 CALM      30.17R
PATTERSON      CLEAR     48  43  81 E5        30.18R
SALT POINT       N/A     50  45  83 CALM      30.16R
NEW IBERIA     CLEAR     51  41  68 E5        30.18R
CHENAULT AIRPK CLEAR     49  44  82 CALM      30.16S

$$

LAZ027-028-281100-
CENTRAL LOUISIANA

CITY           SKY/WX    TMP DP  RH WIND       PRES   REMARKS
FORT POLK      CLEAR     46  41  85 E2        30.16R
ALEXANDRIA INT CLEAR     45  41  86 E3        30.15S
ALEXANDRIA     CLEAR     42  40  92 CALM      30.16F

$$

LAZ001-002-281100-
NORTHWEST LOUISIANA

CITY           SKY/WX    TMP DP  RH WIND       PRES   REMARKS
SHREVEPORT     PTCLDY    46  39  76 SE3       30.13F
BARKSDALE AFB  CLEAR     42  38  85 SE3       30.14F
DTN SHREVEPORT CLEAR     46  38  73 SE6       30.14F

$$

LAZ014-016-281100-
NORTHEAST LOUISIANA

CITY           SKY/WX    TMP DP  RH WIND       PRES   REMARKS
MONROE         PTCLDY    39  38  96 CALM      30.18F
TALLULAH       CLEAR     38  36  92 CALM      30.20R

$$




USA.gov is the U.S. government's official web portal to all federal, state and local government web resources and services.